星链-5279 (STARLINK-5279 )

导读

STARLINK-5279是美国SpaceX公司星链星座的低轨互联网卫星,于2022年10月28日发射,属于星链第二代组网卫星,运行在近地轨道,承担全球高速互联网覆盖任务。它依托相控阵天线技术,配合星间激光链路,可为偏远地区、海洋空域提供低延迟宽带服务,也是星链实现全球连续通信组网的组成部分,不过星链大规模部署也引发太空拥堵等争议。

基本信息
目录编号:
54165
目录名称:
STARLINK-5279
国际标识:
2022-141J
轨道中心:
EARTH
卫星名称:
星链-5279
卫星全名:
星链-5279 (STARLINK-5279 )
卫星状态:
在轨 (已飞行1415 天)
发射日期:
2022-10-28 UTC
国别 :
美国 (US)
星等 :
--
该卫星已列入 空间交会检测服务 Space Conjunction Data Service (SCDS) ,当前飞行风险评估等级: 无高风险
轨道信息
数据来源 国际轨道数据
星历时间: 2026-09-12T16:00:02+0800
6小时前
查看轨道信息
半长轴: 6878.397km
偏心率: 0.0001916
轨道倾角: 53.161°
近地点辐角 94.662°
升交点赤经 255.221°
平近点角 134.893°
近地点: 498.942km
远地点: 501.578km
周期: 94.622分钟
每日圈数: 15.218504
详细信息
固有亮度:
5
最大亮度:
2.5
卫星平台:
Starlink v1.5
覆盖范围:
全球
运营商:
太空探索技术公司
运营商所在国:
美国
制造商(研发单位):
太空探索技术公司
制造商所在国:
美国
使用方式:
暂无
卫星简介
星链(Starlink)计划是由太空探索技术公司(SpaceX)提出的一个巨型低轨卫星互联网星座项目,计划在2019年至2024年间在太空搭建由约1.2万颗卫星组成的“星链”网络,其中1584颗将部署在地球上空550千米处的近地轨道,并从2020年开始工作。该卫星仍在工作。
2D轨道图
3D轨道图
轨道高度分析图
轨道倾角分析图
轨道综合分析图
查看轨道综合分析图
交会数据列表
事件ID 空间交会对象 最接近时刻(TCA) 交会距离 交会风险概率(CRP) 交会风险指数(CRI) 操作
CDM_260911-203005-416506-842622
OBJECT L (68426)
2026-09-11T
20:30:35+0000
2.382 km
极远距离
1.306899E-6 低风险 0.37
与全量物体交会距离演化趋势
与全量物体交会风险概率演化趋势